Location: Unspecified
(0.0000°N, 0.0000°E)
Time: 01:12:37
(UTC+00:00)

USA 125 - Pass Details

Date: 19 May 2026
Orbit: 363 x 39930 km, 64.0° (Epoch: 9 October)

Event Time Altitude Azimuth Distance (km) Brightness Sun altitude
Rises 19:01:29 0° 344° (NNW) 12,413 ? -15.2°
Reaches altitude 10° 19:16:01 10° 355° (N) 6,923 ? -18.6°
Maximum altitude 19:26:52 23° 40° (NE) 2,525 ? -21.2°
Enters shadow 19:28:25 21° 61° (ENE) 2,192 ? -21.5°
